When you browse on this site, cookies collect data to enhance your experience and personalize the content and advertising you see.
Visit our Privacy Policy to learn more. By continuing to use the site, you agree to this use of cookies and data.
  • en Belgique
  • Liste des pays
  • À 7 jours
  • Température de l'eau
  • Carte météo
  • Widgets météo
  • user-avatar
    Se connecter

    Météo par heure à Serowe

    Ce jour, 2 Juin, Mardi

    Heure Température Précipitation Vent Pression Humidité
    00:00 +13°C° 0 mm 1 m/s 671 mmHg 64%
    01:00 +12°C° 0 mm 1 m/s 671 mmHg 67%
    02:00 +12°C° 0 mm 1 m/s 671 mmHg 71%
    03:00 +11°C° 0 mm 1 m/s 671 mmHg 73%
    04:00 +11°C° 0 mm 1 m/s 671 mmHg 76%
    05:00 +10°C° 0 mm 1 m/s 670 mmHg 79%
    06:00 +11°C° 0 mm 1 m/s 671 mmHg 75%
    07:00 +12°C° 0 mm 1 m/s 672 mmHg 71%
    08:00 +14°C° 0 mm 2 m/s 673 mmHg 65%
    09:00 +16°C° 0 mm 3 m/s 673 mmHg 56%
    10:00 +19°C° 0 mm 4 m/s 673 mmHg 47%
    11:00 +22°C° 0 mm 5 m/s 674 mmHg 38%
    12:00 +23°C° 0 mm 5 m/s 673 mmHg 33%
    13:00 +25°C° 0 mm 5 m/s 673 mmHg 29%
    14:00 +26°C° 0 mm 5 m/s 672 mmHg 24%
    15:00 +26°C° 0 mm 4 m/s 672 mmHg 26%
    16:00 +25°C° 0 mm 4 m/s 671 mmHg 27%
    17:00 +23°C° 0 mm 4 m/s 671 mmHg 28%
    18:00 +20°C° 0 mm 3 m/s 671 mmHg 35%
    19:00 +18°C° 0 mm 3 m/s 671 mmHg 42%
    20:00 +14°C° 0 mm 3 m/s 670 mmHg 49%
    21:00 +14°C° 0 mm 2 m/s 670 mmHg 53%
    22:00 +14°C° 0 mm 2 m/s 670 mmHg 58%
    23:00 +13°C° 0 mm 2 m/s 670 mmHg 62%

    Demain, 3 Juin, Mercredi

    Heure Température Précipitation Vent Pression Humidité
    00:00 +12°C° 0 mm 2 m/s 670 mmHg 66%
    01:00 +12°C° 0 mm 2 m/s 669 mmHg 69%
    02:00 +10°C° 0 mm 2 m/s 669 mmHg 73%
    03:00 +10°C° 0 mm 2 m/s 669 mmHg 77%
    04:00 +9°C° 0 mm 2 m/s 669 mmHg 80%
    05:00 +9°C° 0 mm 2 m/s 669 mmHg 84%
    06:00 +10°C° 0 mm 2 m/s 670 mmHg 80%
    07:00 +12°C° 0 mm 2 m/s 670 mmHg 75%
    08:00 +13°C° 0 mm 2 m/s 671 mmHg 71%
    09:00 +16°C° 0 mm 3 m/s 671 mmHg 58%
    10:00 +19°C° 0 mm 3 m/s 672 mmHg 46%
    11:00 +22°C° 0 mm 4 m/s 672 mmHg 33%
    12:00 +23°C° 0 mm 4 m/s 672 mmHg 29%
    13:00 +25°C° 0 mm 3 m/s 671 mmHg 25%
    14:00 +26°C° 0 mm 3 m/s 670 mmHg 20%
    15:00 +26°C° 0 mm 3 m/s 670 mmHg 21%
    16:00 +25°C° 0 mm 3 m/s 670 mmHg 22%
    17:00 +24°C° 0 mm 3 m/s 670 mmHg 23%
    18:00 +20°C° 0 mm 3 m/s 669 mmHg 28%
    19:00 +18°C° 0 mm 2 m/s 669 mmHg 34%
    20:00 +15°C° 0 mm 2 m/s 669 mmHg 39%
    21:00 +14°C° 0 mm 2 m/s 669 mmHg 43%
    22:00 +13°C° 0 mm 1 m/s 669 mmHg 46%
    23:00 +12°C° 0 mm 1 m/s 669 mmHg 49%

    Après-demain, 4 Juin, Jeudi

    Heure Température Précipitation Vent Pression Humidité
    00:00 +12°C° 0 mm 1 m/s 668 mmHg 52%
    01:00 +11°C° 0 mm 1 m/s 668 mmHg 55%
    02:00 +11°C° 0 mm 1 m/s 668 mmHg 58%
    03:00 +10°C° 0 mm 1 m/s 668 mmHg 61%
    04:00 +10°C° 0 mm 1 m/s 668 mmHg 64%
    05:00 +10°C° 0 mm 1 m/s 668 mmHg 68%
    06:00 +11°C° 0 mm 1 m/s 669 mmHg 65%
    07:00 +11°C° 0 mm 1 m/s 669 mmHg 63%
    08:00 +12°C° 0 mm 2 m/s 670 mmHg 61%
    09:00 +16°C° 0 mm 3 m/s 671 mmHg 51%
    10:00 +19°C° 0 mm 4 m/s 671 mmHg 42%
    11:00 +22°C° 0 mm 5 m/s 672 mmHg 32%
    12:00 +23°C° 0 mm 5 m/s 672 mmHg 29%
    13:00 +25°C° 0 mm 5 m/s 671 mmHg 25%
    14:00 +26°C° 0 mm 5 m/s 671 mmHg 22%
    15:00 +25°C° 0 mm 4 m/s 670 mmHg 24%
    16:00 +23°C° 0 mm 4 m/s 670 mmHg 26%
    17:00 +22°C° 0 mm 4 m/s 670 mmHg 28%
    18:00 +19°C° 0 mm 4 m/s 670 mmHg 35%
    19:00 +17°C° 0 mm 3 m/s 670 mmHg 42%
    20:00 +13°C° 0 mm 3 m/s 670 mmHg 49%
    21:00 +13°C° 0 mm 3 m/s 670 mmHg 52%
    22:00 +12°C° 0 mm 3 m/s 670 mmHg 56%
    23:00 +12°C° 0 mm 3 m/s 670 mmHg 59%

    5 Juin, Vendredi

    Heure Température Précipitation Vent Pression Humidité
    00:00 +11°C° 0 mm 3 m/s 670 mmHg 65%
    01:00 +10°C° 0 mm 3 m/s 670 mmHg 72%
    02:00 +10°C° 0 mm 3 m/s 669 mmHg 78%
    03:00 +9°C° 0 mm 3 m/s 670 mmHg 84%
    04:00 +9°C° 0 mm 3 m/s 670 mmHg 89%
    05:00 +9°C° 0 mm 3 m/s 670 mmHg 94%
    06:00 +9°C° 0 mm 3 m/s 670 mmHg 92%
    07:00 +10°C° 0 mm 4 m/s 671 mmHg 90%
    08:00 +11°C° 0 mm 4 m/s 671 mmHg 88%
    09:00 +13°C° 0 mm 4 m/s 672 mmHg 75%
    10:00 +17°C° 0 mm 4 m/s 672 mmHg 62%
    11:00 +19°C° 0 mm 4 m/s 673 mmHg 49%
    12:00 +21°C° 0 mm 4 m/s 672 mmHg 42%
    13:00 +22°C° 0 mm 4 m/s 672 mmHg 35%
    14:00 +23°C° 0 mm 4 m/s 671 mmHg 28%
    15:00 +22°C° 0 mm 3 m/s 671 mmHg 29%
    16:00 +21°C° 0 mm 3 m/s 671 mmHg 30%
    17:00 +21°C° 0 mm 3 m/s 671 mmHg 30%
    18:00 +18°C° 0 mm 3 m/s 671 mmHg 38%
    19:00 +16°C° 0 mm 2 m/s 671 mmHg 46%
    20:00 +13°C° 0 mm 2 m/s 671 mmHg 53%
    21:00 +13°C° 0 mm 2 m/s 671 mmHg 58%
    22:00 +12°C° 0 mm 1 m/s 671 mmHg 62%
    23:00 +11°C° 0 mm 1 m/s 671 mmHg 66%

    6 Juin, Samedi

    Heure Température Précipitation Vent Pression Humidité
    00:00 +11°C° 0 mm 1 m/s 671 mmHg 69%
    01:00 +10°C° 0 mm 1 m/s 670 mmHg 72%
    02:00 +10°C° 0 mm 1 m/s 670 mmHg 76%
    03:00 +8°C° 0 mm 2 m/s 670 mmHg 80%
    04:00 +8°C° 0 mm 2 m/s 670 mmHg 85%
    05:00 +7°C° 0 mm 2 m/s 670 mmHg 89%
    06:00 +8°C° 0 mm 2 m/s 671 mmHg 86%
    07:00 +9°C° 0 mm 2 m/s 672 mmHg 82%
    08:00 +10°C° 0 mm 2 m/s 672 mmHg 78%
    09:00 +14°C° 0 mm 2 m/s 673 mmHg 66%
    10:00 +17°C° 0 mm 3 m/s 673 mmHg 53%
    11:00 +20°C° 0 mm 4 m/s 674 mmHg 41%
    12:00 +21°C° 0 mm 4 m/s 673 mmHg 37%
    13:00 +22°C° 0 mm 4 m/s 673 mmHg 32%
    14:00 +23°C° 0 mm 4 m/s 672 mmHg 28%
    15:00 +22°C° 0 mm 4 m/s 672 mmHg 29%
    16:00 +22°C° 0 mm 4 m/s 672 mmHg 29%
    17:00 +21°C° 0 mm 3 m/s 671 mmHg 30%
    18:00 +18°C° 0 mm 3 m/s 671 mmHg 38%
    19:00 +16°C° 0 mm 3 m/s 671 mmHg 46%
    20:00 +13°C° 0 mm 2 m/s 671 mmHg 54%
    21:00 +13°C° 0 mm 2 m/s 671 mmHg 57%
    22:00 +12°C° 0 mm 2 m/s 671 mmHg 60%
    23:00 +10°C° 0 mm 2 m/s 671 mmHg 63%

    7 Juin, Dimanche

    Heure Température Précipitation Vent Pression Humidité
    00:00 +9°C° 0 mm 2 m/s 671 mmHg 67%
    01:00 +10°C° 0 mm 1 m/s 671 mmHg 71%
    02:00 +9°C° 0 mm 1 m/s 670 mmHg 75%
    03:00 +9°C° 0 mm 1 m/s 670 mmHg 79%
    04:00 +8°C° 0 mm 1 m/s 670 mmHg 83%
    05:00 +8°C° 0 mm 1 m/s 670 mmHg 87%
    06:00 +9°C° 0 mm 1 m/s 671 mmHg 85%
    07:00 +9°C° 0 mm 2 m/s 671 mmHg 82%
    08:00 +10°C° 0 mm 2 m/s 672 mmHg 79%
    09:00 +13°C° 0 mm 3 m/s 672 mmHg 67%
    10:00 +17°C° 0 mm 3 m/s 673 mmHg 55%
    11:00 +19°C° 0 mm 4 m/s 673 mmHg 42%
    12:00 +20°C° 0 mm 4 m/s 673 mmHg 37%
    13:00 +22°C° 0 mm 4 m/s 672 mmHg 32%
    14:00 +23°C° 0 mm 4 m/s 672 mmHg 28%
    15:00 +22°C° 0 mm 4 m/s 672 mmHg 28%
    16:00 +21°C° 0 mm 4 m/s 671 mmHg 29%
    17:00 +20°C° 0 mm 4 m/s 671 mmHg 30%
    18:00 +18°C° 0 mm 3 m/s 671 mmHg 37%
    19:00 +16°C° 0 mm 2 m/s 671 mmHg 43%
    20:00 +13°C° 0 mm 2 m/s 671 mmHg 50%
    21:00 +13°C° 0 mm 2 m/s 671 mmHg 52%
    22:00 +12°C° 0 mm 2 m/s 671 mmHg 54%
    23:00 +10°C° 0 mm 2 m/s 671 mmHg 56%
    Voir plus